Showing default

HULIANWANG DIGUI-115, 66954

Orbit data source: Space-Track

HULIANWANG DIGUI-115, 66954 is a payload satellite owned by Zhongguo Xingwang (CN) in LEO that was launched on Mon, 08 Dec 2025 UTC via a CHANG ZHENG 6A launch vehicle from the Taiyaun Space Center, China (TSC). Payload-class satellites include a variety of spacecraft equipped with specific instruments for various scientific and technological missions. These include communications satellites like Starlink; space stations such as the ISS; scientific satellites like the Hubble; Earth observation satellites from companies like Planet Labs, Umbra, and HawkEye 360; GPS; miniature CubeSats for education and research; and military/defense satellites.

Loading next visibility...
Identifier
66954, 2025-287B
Orbit
LEO
Country
Flag of CNCN / PRC
Related business
Manufacturer
CAST
Mission
Operational Civil Communications
Bus & Motor
XINGWANG C, Unknown motor
Mass
~700 kg wet, ~700 kg dry
Launch date (UTC)
2025-12-08 (6 months ago)
Launch vehicle
CHANG ZHENG 6A
Launch site
Taiyaun Space Center, China (TSC)
Object type
Payload
Rocket body
Debris
Shape & HBR
Box + 2 Pan, 14.5 m
Radar Cross Section
5.935 m², Large (>1 m²)

Expand to show TLE details & history
Last TLE update: 11 hours ago

TLE from 11 hours ago
0 HULIANWANG DIGUI-115
1 66954U 25287B   26171.38230517  .00000040  00000-0  59498-4 0  9993
2 66954  86.4954 281.3118 0002318 114.0546 246.0831 13.24399428 25766
Epoch: 2026-06-20T09:10Z
TLE epoch observation values (Epoch: 2026-06-20T09:10:31.166Z)
Latitude
-0.00001°
Longitude
-124.91579°
Altitude
1,171.566 km
Speed
7.267 km/s
True Right ascension
18h 45m 14s
True Declination
0° 00' 00"
Sunlit
Object was in full shadow at epoch
Visualization orbit readout
Latitude
Unknown
Longitude
Unknown
Altitude
Unknown
Speed
Unknown
Apparent Right ascension
Unknown
Apparent Declination
Unknown
Sunlit
N/A
Visualization observer readout
Local Sidereal Time
07:18:17
Azimuth
Unknown
Elevation
Unknown
Doppler factor
Unknown
Orbital elements
Apogee altitude
1,166.831 km
Perigee altitude
1,163.334 km
Semi-major axis
7,543.219 km
Eccentricity
0.00023
Inclination
86.4954°
RAAN
281.3118°
Arg. of periapsis
114.0546°
True anomaly
246.05882°
Mean anomaly
246.0831°
Eccentric anomaly
246.07096°
Mean motion
3.3129 °/min
Orbital period
108.67 mins
BSTAR
0.000059498
Loading maneuver chart data...
Computing Atmospheric mass density...
Loading historical data...
Loading historical data...
Loading historical data...
Loading historical data...
Loading historical data...
Loading historical data...
Loading historical data...

Documentation

Showing up to 5 results
|